| time (UTC) | temp F | wind direction | speed knots | gust knots | rain 1hr in | rain 24hr in | rain mn in | humidity % | barometer mb |
| 20260903042638 | 58 | 194 | 0.0 | 0.9 | 0.00 | 0.06 | 0.06 | 90 | 1012.7 |
| 20260903041637 | 59 | 194 | 0.0 | 0.0 | 0.00 | 0.06 | 0.06 | 89 | 1012.6 |
| 20260903040638 | 59 | 194 | 0.0 | 0.0 | 0.00 | 0.06 | 0.06 | 89 | 1012.6 |
| 20260903035638 | 59 | 194 | 0.0 | 0.0 | 0.00 | 0.06 | 0.06 | 89 | 1012.6 |
| 20260903034638 | 59 | 194 | 0.0 | 0.0 | 0.00 | 0.06 | 0.06 | 89 | 1012.6 |
| 20260903033637 | 60 | 194 | 0.0 | 0.0 | 0.00 | 0.06 | 0.06 | 88 | 1012.5 |
| 20260903032638 | 60 | 194 | 0.0 | 0.0 | 0.00 | 0.06 | 0.06 | 88 | 1012.5 |
| 20260903031637 | 60 | 194 | 0.0 | 0.0 | 0.00 | 0.06 | 0.06 | 87 | 1012.4 |
| 20260903030642 | 60 | 194 | 0.0 | 0.0 | 0.00 | 0.06 | 0.06 | 87 | 1012.4 |
| 20260903025638 | 60 | 194 | 0.0 | 0.0 | 0.00 | 0.06 | 0.06 | 87 | 1012.4 |
| 20260903024639 | 60 | 194 | 0.0 | 0.0 | 0.00 | 0.06 | 0.06 | 87 | 1012.4 |
| 20260903023638 | 60 | 194 | 0.0 | 0.0 | 0.00 | 0.06 | 0.06 | 86 | 1012.3 |
| 20260903022638 | 60 | 194 | 0.0 | 0.0 | 0.00 | 0.06 | 0.06 | 86 | 1012.3 |
| 20260903021638 | 61 | 194 | 0.0 | 0.0 | 0.00 | 0.06 | 0.06 | 85 | 1012.2 |
| 20260903020638 | 61 | 194 | 0.0 | 0.0 | 0.00 | 0.06 | 0.06 | 85 | 1012.2 |
| 20260903015639 | 61 | 194 | 0.0 | 0.0 | 0.00 | 0.06 | 0.06 | 85 | 1012.1 |
| 20260903014639 | 61 | 194 | 0.0 | 0.0 | 0.00 | 0.06 | 0.06 | 85 | 1012.1 |
| 20260903013638 | 62 | 194 | 0.0 | 0.0 | 0.00 | 0.06 | 0.06 | 82 | 1011.9 |
| 20260903012638 | 62 | 194 | 0.0 | 0.0 | 0.00 | 0.06 | 0.06 | 82 | 1011.9 |
| 20260903011638 | 64 | 194 | 0.0 | 0.0 | 0.00 | 0.06 | 0.06 | 79 | 1011.7 |
| 20260903010639 | 64 | 194 | 0.0 | 0.0 | 0.00 | 0.06 | 0.06 | 79 | 1011.7 |
| 20260903005638 | 66 | 194 | 0.0 | 0.0 | 0.00 | 0.06 | 0.06 | 76 | 1011.5 |
| 20260903002639 | 72 | 194 | 0.0 | 0.0 | 0.00 | 0.06 | 0.06 | 64 | 1011.5 |
| 20260903001638 | 72 | 194 | 0.0 | 0.0 | 0.00 | 0.06 | 0.06 | 64 | 1011.5 |
| 20260903000640 | 73 | 194 | 0.0 | 0.9 | 0.00 | 0.06 | 0.06 | 59 | 1011.4 |
| 20260902235639 | 73 | 194 | 0.0 | 0.9 | 0.00 | 0.06 | 0.06 | 59 | 1011.4 |
| 20260902234639 | 75 | 193 | 0.0 | 1.7 | 0.00 | 0.06 | 0.06 | 55 | 1011.3 |
| 20260902233639 | 75 | 193 | 0.0 | 1.7 | 0.00 | 0.06 | 0.06 | 55 | 1011.3 |
| 20260902232640 | 76 | 227 | 0.0 | 2.6 | 0.00 | 0.06 | 0.06 | 53 | 1011.2 |
| 20260902231640 | 76 | 227 | 0.0 | 2.6 | 0.00 | 0.06 | 0.06 | 53 | 1011.2 |
| 20260902230640 | 77 | 331 | 0.0 | 4.3 | 0.00 | 0.06 | 0.06 | 51 | 1011.3 |
| 20260902225639 | 77 | 331 | 0.0 | 4.3 | 0.00 | 0.06 | 0.06 | 51 | 1011.3 |
| 20260902224639 | 78 | 238 | 1.7 | 4.3 | 0.00 | 0.06 | 0.06 | 49 | 1011.3 |
| 20260902223639 | 78 | 238 | 1.7 | 4.3 | 0.00 | 0.06 | 0.06 | 49 | 1011.3 |
| 20260902222639 | 78 | 220 | 3.5 | 6.1 | 0.00 | 0.06 | 0.06 | 49 | 1011.2 |
| 20260902221639 | 78 | 220 | 3.5 | 6.1 | 0.00 | 0.06 | 0.06 | 49 | 1011.2 |
| 20260902220640 | 79 | 304 | 2.6 | 4.3 | 0.00 | 0.06 | 0.06 | 46 | 1011.1 |
| 20260902215641 | 79 | 304 | 2.6 | 4.3 | 0.00 | 0.06 | 0.06 | 46 | 1011.1 |
| 20260902214650 | 79 | 342 | 1.7 | 7.0 | 0.00 | 0.06 | 0.06 | 46 | 1011.1 |
| 20260902212640 | 79 | 225 | 0.9 | 7.0 | 0.00 | 0.06 | 0.06 | 49 | 1011.2 |
| 20260902211641 | 79 | 98 | 0.9 | 4.3 | 0.00 | 0.06 | 0.06 | 47 | 1011.0 |
| 20260902210640 | 79 | 98 | 0.9 | 4.3 | 0.00 | 0.06 | 0.06 | 47 | 1011.0 |
| 20260902205641 | 79 | 193 | 0.0 | 6.1 | 0.00 | 0.06 | 0.06 | 50 | 1011.2 |
| 20260902204640 | 79 | 193 | 0.0 | 6.1 | 0.00 | 0.06 | 0.06 | 50 | 1011.2 |
| 20260902203644 | 78 | 86 | 0.9 | 7.0 | 0.00 | 0.06 | 0.06 | 50 | 1011.3 |
| 20260902202640 | 78 | 86 | 0.9 | 7.0 | 0.00 | 0.06 | 0.06 | 50 | 1011.3 |
| 20260902201640 | 78 | 86 | 0.0 | 5.2 | 0.00 | 0.06 | 0.06 | 51 | 1011.5 |
| 20260902200640 | 78 | 86 | 0.0 | 5.2 | 0.00 | 0.06 | 0.06 | 51 | 1011.5 |
| 20260902195640 | 78 | 217 | 0.9 | 7.0 | 0.00 | 0.06 | 0.06 | 51 | 1011.4 |
| 20260902194641 | 78 | 217 | 0.9 | 7.0 | 0.00 | 0.06 | 0.06 | 51 | 1011.4 |
| 20260902193641 | 77 | 220 | 3.5 | 6.1 | 0.00 | 0.06 | 0.06 | 51 | 1011.5 |
| 20260902192641 | 77 | 220 | 3.5 | 6.1 | 0.00 | 0.06 | 0.06 | 51 | 1011.5 |
| 20260902191641 | 78 | 220 | 0.9 | 7.0 | 0.00 | 0.06 | 0.06 | 50 | 1011.6 |
| 20260902190641 | 78 | 220 | 0.9 | 7.0 | 0.00 | 0.06 | 0.06 | 50 | 1011.6 |
| 20260902185641 | 78 | 39 | 0.9 | 6.1 | 0.00 | 0.06 | 0.06 | 51 | 1011.8 |
| 20260902184641 | 78 | 39 | 0.9 | 6.1 | 0.00 | 0.06 | 0.06 | 51 | 1011.8 |
| 20260902183641 | 77 | 213 | 0.0 | 7.8 | 0.06 | 0.06 | 0.06 | 54 | 1011.8 |
| 20260902182640 | 75 | 219 | 1.7 | 5.2 | 0.06 | 0.06 | 0.06 | 56 | 1012.0 |
| 20260902181640 | 75 | 219 | 1.7 | 5.2 | 0.06 | 0.06 | 0.06 | 56 | 1012.0 |
| 20260902180640 | 77 | 288 | 0.0 | 6.1 | 0.06 | 0.06 | 0.06 | 55 | 1011.8 |
| 20260902175640 | 77 | 288 | 0.0 | 6.1 | 0.06 | 0.06 | 0.06 | 55 | 1011.8 |
| 20260902174641 | 74 | 240 | 1.7 | 5.2 | 0.00 | 0.00 | 0.00 | 58 | 1012.1 |
| 20260902173641 | 74 | 240 | 1.7 | 5.2 | 0.00 | 0.00 | 0.00 | 58 | 1012.1 |
| 20260902172642 | 74 | 174 | 0.9 | 2.6 | 0.00 | 0.00 | 0.00 | 60 | 1012.1 |
| 20260902171642 | 74 | 174 | 0.9 | 2.6 | 0.00 | 0.00 | 0.00 | 60 | 1012.1 |
| 20260902170642 | 74 | 236 | 0.0 | 1.7 | 0.00 | 0.00 | 0.00 | 61 | 1012.2 |
| 20260902165641 | 74 | 236 | 0.0 | 1.7 | 0.00 | 0.00 | 0.00 | 61 | 1012.2 |
| 20260902164642 | 74 | 294 | 0.0 | 4.3 | 0.00 | 0.00 | 0.00 | 61 | 1012.3 |
| 20260902163641 | 74 | 294 | 0.0 | 4.3 | 0.00 | 0.00 | 0.00 | 61 | 1012.3 |
| 20260902162642 | 74 | 231 | 0.0 | 4.3 | 0.00 | 0.00 | 0.00 | 61 | 1012.1 |
| 20260902161642 | 74 | 231 | 0.0 | 4.3 | 0.00 | 0.00 | 0.00 | 61 | 1012.1 |
| 20260902160642 | 73 | 242 | 0.0 | 0.9 | 0.00 | 0.00 | 0.00 | 63 | 1012.0 |
| 20260902155643 | 73 | 242 | 0.0 | 0.9 | 0.00 | 0.00 | 0.00 | 63 | 1012.0 |
| 20260902154641 | 72 | 289 | 0.0 | 1.7 | 0.00 | 0.00 | 0.00 | 64 | 1012.1 |
| 20260902153642 | 72 | 289 | 0.0 | 1.7 | 0.00 | 0.00 | 0.00 | 64 | 1012.1 |
| 20260902152642 | 70 | 22 | 0.0 | 1.7 | 0.00 | 0.00 | 0.00 | 69 | 1012.2 |
| 20260902143642 | 64 | 38 | 0.0 | 0.0 | 0.00 | 0.01 | 0.00 | 82 | 1012.6 |
| 20260902142642 | 64 | 38 | 0.0 | 0.0 | 0.00 | 0.01 | 0.00 | 82 | 1012.6 |
| 20260902135645 | 61 | 240 | 0.0 | 0.9 | 0.00 | 0.01 | 0.00 | 88 | 1012.6 |
| 20260902134643 | 61 | 240 | 0.0 | 0.9 | 0.00 | 0.01 | 0.00 | 88 | 1012.6 |
| 20260902133644 | 60 | 240 | 0.0 | 0.9 | 0.00 | 0.01 | 0.00 | 94 | 1012.5 |
| 20260902132644 | 60 | 240 | 0.0 | 0.9 | 0.00 | 0.01 | 0.00 | 94 | 1012.5 |
| 20260902131644 | 58 | 240 | 0.0 | 0.0 | 0.00 | 0.01 | 0.00 | 96 | 1012.3 |
| 20260902130643 | 58 | 240 | 0.0 | 0.0 | 0.00 | 0.01 | 0.00 | 96 | 1012.3 |
| 20260902125644 | 56 | 240 | 0.0 | 0.0 | 0.00 | 0.01 | 0.00 | 96 | 1012.4 |
| 20260902124644 | 56 | 240 | 0.0 | 0.0 | 0.00 | 0.01 | 0.00 | 96 | 1012.4 |
| 20260902122644 | 55 | 240 | 0.0 | 0.0 | 0.00 | 0.01 | 0.00 | 95 | 1012.1 |
| 20260902121642 | 55 | 240 | 0.0 | 0.0 | 0.00 | 0.01 | 0.00 | 95 | 1012.0 |
| 20260902120643 | 55 | 240 | 0.0 | 0.0 | 0.00 | 0.01 | 0.00 | 94 | 1011.9 |
| 20260902115644 | 55 | 240 | 0.0 | 0.0 | 0.00 | 0.01 | 0.00 | 94 | 1011.9 |
| 20260902114643 | 55 | 239 | 0.0 | 0.0 | 0.00 | 0.01 | 0.00 | 94 | 1011.9 |
| 20260902113644 | 55 | 239 | 0.0 | 0.0 | 0.00 | 0.01 | 0.00 | 94 | 1011.9 |
| 20260902112645 | 55 | 240 | 0.0 | 0.0 | 0.00 | 0.01 | 0.00 | 94 | 1011.9 |
| 20260902111644 | 55 | 240 | 0.0 | 0.0 | 0.00 | 0.01 | 0.00 | 94 | 1011.9 |
| 20260902110643 | 56 | 240 | 0.0 | 0.0 | 0.00 | 0.01 | 0.00 | 94 | 1011.9 |
| 20260902105643 | 56 | 240 | 0.0 | 0.0 | 0.00 | 0.01 | 0.00 | 94 | 1011.9 |
| 20260902104643 | 56 | 240 | 0.0 | 0.0 | 0.00 | 0.01 | 0.00 | 94 | 1012.0 |
| 20260902103643 | 56 | 240 | 0.0 | 0.0 | 0.00 | 0.01 | 0.00 | 94 | 1012.0 |
| 20260902102644 | 56 | 240 | 0.0 | 0.0 | 0.00 | 0.01 | 0.00 | 93 | 1012.1 |
| 20260902101644 | 56 | 240 | 0.0 | 0.0 | 0.00 | 0.01 | 0.00 | 93 | 1012.1 |
| 20260902100643 | 56 | 240 | 0.0 | 0.0 | 0.00 | 0.01 | 0.00 | 93 | 1012.3 |
| 20260902095643 | 56 | 240 | 0.0 | 0.0 | 0.00 | 0.01 | 0.00 | 93 | 1012.3 |
| 20260902094643 | 57 | 239 | 0.0 | 0.0 | 0.00 | 0.01 | 0.00 | 92 | 1012.0 |
| 20260902093644 | 57 | 239 | 0.0 | 0.0 | 0.00 | 0.01 | 0.00 | 92 | 1012.0 |
| 20260902092643 | 57 | 240 | 0.0 | 0.0 | 0.00 | 0.01 | 0.00 | 91 | 1011.7 |
| 20260902091643 | 57 | 240 | 0.0 | 0.0 | 0.00 | 0.01 | 0.00 | 91 | 1011.7 |
| 20260902090645 | 58 | 239 | 0.0 | 0.0 | 0.00 | 0.01 | 0.00 | 91 | 1011.4 |
| 20260902073645 | 60 | 240 | 0.0 | 0.0 | 0.00 | 0.01 | 0.00 | 88 | 1011.5 |
| 20260902072645 | 60 | 240 | 0.0 | 0.0 | 0.00 | 0.01 | 0.00 | 88 | 1011.5 |
| 20260902071646 | 60 | 240 | 0.0 | 0.0 | 0.00 | 0.01 | 0.00 | 88 | 1011.6 |
| 20260902070646 | 60 | 240 | 0.0 | 0.0 | 0.00 | 0.01 | 0.00 | 88 | 1011.6 |
| 20260902065647 | 60 | 240 | 0.0 | 0.0 | 0.00 | 0.01 | 0.00 | 88 | 1011.6 |
| 20260902064645 | 60 | 240 | 0.0 | 0.0 | 0.00 | 0.01 | 0.00 | 88 | 1011.6 |
| 20260902063646 | 60 | 240 | 0.0 | 0.0 | 0.00 | 0.01 | 0.00 | 87 | 1011.5 |
| 20260902062645 | 60 | 240 | 0.0 | 0.0 | 0.00 | 0.01 | 0.00 | 87 | 1011.5 |
| 20260902061646 | 60 | 240 | 0.0 | 0.9 | 0.00 | 0.01 | 0.00 | 87 | 1011.5 |
| 20260902060649 | 60 | 240 | 0.0 | 0.9 | 0.00 | 0.01 | 0.00 | 87 | 1011.5 |
| 20260902055645 | 60 | 240 | 0.0 | 0.9 | 0.00 | 0.01 | 0.00 | 86 | 1011.6 |
| 20260902054645 | 60 | 239 | 0.0 | 1.7 | 0.00 | 0.01 | 0.00 | 86 | 1011.6 |
| 20260902053645 | 60 | 239 | 0.0 | 1.7 | 0.00 | 0.01 | 0.00 | 86 | 1011.6 |
| 20260902052645 | 60 | 240 | 0.0 | 0.9 | 0.00 | 0.01 | 0.00 | 86 | 1012.0 |
| 20260902051645 | 60 | 240 | 0.0 | 0.9 | 0.00 | 0.01 | 0.00 | 86 | 1012.0 |
| 20260902050646 | 60 | 240 | 0.0 | 1.7 | 0.00 | 0.01 | 0.01 | 86 | 1012.1 |
| 20260902045647 | 60 | 240 | 0.0 | 1.7 | 0.00 | 0.01 | 0.01 | 86 | 1012.1 |
| 20260902044646 | 60 | 240 | 0.0 | 1.7 | 0.00 | 0.01 | 0.01 | 85 | 1011.9 |
| 20260902043645 | 60 | 240 | 0.0 | 1.7 | 0.00 | 0.01 | 0.01 | 85 | 1011.9 |